Starlink 32446

operational
NORAD ID: 61262 Int'l Des: 2024-175 Owner: SPXS Country: US Constellation: starlink
LEOCIRCULAR

Über Starlink 32446

Beschreibung wird geladen...

Live-Position

3D-Globus wird geladen...

Nächste Überflüge

Höhenverlauf

Altitude vs Time

uPlot chart will show altitude changes over time

Zweizeiliger Elementsatz

1 61262U 24175V 25259.44082943 -.00001330 00000-0 -32792-4 0 9999
2 61262 53.1598 283.5283 0001461 86.0629 274.0539 15.30186370 54771
Epoch: 16. Sept. 2025 • Age: 18 hours

Aktueller Status

Höhe 480.8 km
Geschwindigkeit 7.63 km/s
Subsatellitenpunkt 53.27°N, 52.48°W
Startdatum 25. Sept. 2024
Alter 0.9 years
Typ internet

Technische Details

Klassifizierung Payload
Masse 730.00 kg
Trockenmasse 700.00 kg
Gesamtmasse 730.00 kg
Länge 0.30 m
Durchmesser 4.10 m
Spannweite 29.00 m
Form Box + pan
Hersteller SPXS
Bus-Typ Starlink V2M
Phasenstatus In Orbit
Besitzer/Staat SPXS/US

Große Konstellationen

Loading constellations...